Regional Weather Roundup
Issued by NWS

Home | Current Version | Previous Version | Text Only | Print | Product List | Glossary Off
Versions: 1 2 3 4 5 6 7 8 9 10 11 12 13 14 15 16 17 18 19 20 21 22 23 24 25 26 27 28 29 30 31 32 33 34 35 36 37 38 39 40 41 42 43 44 45 46 47 48 49 50

000
ASUS43 KBIS 211110
RWRND

NORTH DAKOTA REGIONAL WEATHER ROUNDUP
NATIONAL WEATHER SERVICE BISMARCK ND
600 AM CDT SAT OCT 21 2017

NOTE: "FAIR" INDICATES FEW OR NO CLOUDS BELOW 12,000 FEET WITH NO
SIGNIFICANT WEATHER AND/OR OBSTRUCTIONS TO VISIBILITY.


NDZ001>003-009>011-017-211200-
NORTHWEST NORTH DAKOTA

CITY           SKY/WX    TMP DP  RH WIND       PRES   REMARKS
WILLISTON        N/A    N/A N/A N/A MISG      29.46R
MINOT          PTCLDY    54  36  50 SW20      29.36R
MINOT AFB      PTCLDY    52  35  52 W23G31    29.34R
$$

NDZ018>021-031>035-040>046-211200-
SOUTHWEST NORTH DAKOTA

CITY           SKY/WX    TMP DP  RH WIND       PRES   REMARKS
BISMARCK       LGT RAIN  55  40  56 W25G33    29.47R
DICKINSON      MOCLDY    46  35  65 W26G33    29.49R
GARRISON         N/A     49  39  68 W21       29.43R
HETTINGER ARPT CLOUDY    47  32  56 W33G41    29.54R
$$

NDZ004>008-012>016-024-026-027-054-211200-
NORTHEAST NORTH DAKOTA

CITY           SKY/WX    TMP DP  RH WIND       PRES   REMARKS
GRAND FORKS    CLEAR     65  59  81 S16       29.33R
GRND FRKS AFB  CLEAR     62  57  84 S17       29.32R
DEVILS LAKE    CLEAR     54  41  61 W16       29.33R
$$

NDZ022-023-025-028>030-036>039-047>053-211200-
SOUTHEAST NORTH DAKOTA

CITY           SKY/WX    TMP DP  RH WIND       PRES   REMARKS
FARGO          CLEAR     64  58  80 S20G37    29.40R
JAMESTOWN      CLEAR     55  40  56 W13       29.39R
$$





USA.gov is the U.S. government's official web portal to all federal, state and local government web resources and services.